Year,Month,Day,Hour,Minute,Value (Times are PST for temperature in C)
2018,09,28,00,00,14.60
2018,09,28,00,01,14.60
2018,09,28,00,02,14.50
2018,09,28,00,03,14.50
2018,09,28,00,04,14.50
2018,09,28,00,05,14.50
2018,09,28,00,06,14.50
2018,09,28,00,07,14.40
2018,09,28,00,08,14.40
2018,09,28,00,09,14.40
2018,09,28,00,10,14.30
2018,09,28,00,11,14.30
2018,09,28,00,12,14.20
2018,09,28,00,13,14.10
2018,09,28,00,14,14.10
2018,09,28,00,15,14.00
2018,09,28,00,16,13.90
2018,09,28,00,17,13.80
2018,09,28,00,18,13.80
2018,09,28,00,19,13.70
2018,09,28,00,20,13.70
2018,09,28,00,21,13.70
2018,09,28,00,22,13.60
2018,09,28,00,23,13.60
2018,09,28,00,24,13.60
2018,09,28,00,25,13.50
2018,09,28,00,26,13.50
2018,09,28,00,27,13.40
2018,09,28,00,28,13.40
2018,09,28,00,29,13.40
2018,09,28,00,30,13.40
2018,09,28,00,31,13.30
2018,09,28,00,32,13.30
2018,09,28,00,33,13.30
2018,09,28,00,34,13.20
2018,09,28,00,35,13.20
2018,09,28,00,36,13.20
2018,09,28,00,37,13.20
2018,09,28,00,38,13.20
2018,09,28,00,39,13.10
2018,09,28,00,40,13.10
2018,09,28,00,41,13.00
2018,09,28,00,42,13.00
2018,09,28,00,43,12.90
2018,09,28,00,44,12.90
2018,09,28,00,45,12.90
2018,09,28,00,46,12.90
2018,09,28,00,47,12.80
2018,09,28,00,48,12.80
2018,09,28,00,49,12.80
2018,09,28,00,50,12.80
2018,09,28,00,51,12.80
2018,09,28,00,52,12.80
2018,09,28,00,53,12.80
2018,09,28,00,54,12.70
2018,09,28,00,55,12.70
2018,09,28,00,56,12.70
2018,09,28,00,57,12.70
2018,09,28,00,58,12.70
2018,09,28,00,59,12.60
2018,09,28,01,00,12.60
2018,09,28,01,01,12.60
2018,09,28,01,02,12.60
2018,09,28,01,03,12.60
2018,09,28,01,04,12.60
2018,09,28,01,05,12.60
2018,09,28,01,06,12.50
2018,09,28,01,07,12.50
2018,09,28,01,08,12.50
2018,09,28,01,09,12.50
2018,09,28,01,10,12.50
2018,09,28,01,11,12.50
2018,09,28,01,12,12.40
2018,09,28,01,13,12.40
2018,09,28,01,14,12.40
2018,09,28,01,15,12.40
2018,09,28,01,16,12.40
2018,09,28,01,17,12.30
2018,09,28,01,18,12.30
2018,09,28,01,19,12.30
2018,09,28,01,20,12.30
2018,09,28,01,21,12.30
2018,09,28,01,22,12.30
2018,09,28,01,23,12.30
2018,09,28,01,24,12.30
2018,09,28,01,25,12.30
2018,09,28,01,26,12.30
2018,09,28,01,27,12.30
2018,09,28,01,28,12.30
2018,09,28,01,29,12.20
2018,09,28,01,30,12.20
2018,09,28,01,31,12.20
2018,09,28,01,32,12.20
2018,09,28,01,33,12.20
2018,09,28,01,34,12.20
2018,09,28,01,35,12.20
2018,09,28,01,36,12.20
2018,09,28,01,37,12.20
2018,09,28,01,38,12.10
2018,09,28,01,39,12.10
2018,09,28,01,40,12.10
2018,09,28,01,41,12.10
2018,09,28,01,42,12.10
2018,09,28,01,43,12.10
2018,09,28,01,44,12.00
2018,09,28,01,45,12.00
2018,09,28,01,46,12.00
2018,09,28,01,47,12.00
2018,09,28,01,48,11.90
2018,09,28,01,49,11.90
2018,09,28,01,50,11.90
2018,09,28,01,51,11.90
2018,09,28,01,52,11.90
2018,09,28,01,53,11.90
2018,09,28,01,54,11.90
2018,09,28,01,55,11.90
2018,09,28,01,56,11.80
2018,09,28,01,57,11.80
2018,09,28,01,58,11.80
2018,09,28,01,59,11.80
2018,09,28,02,00,11.80
2018,09,28,02,01,11.80
2018,09,28,02,02,11.80
2018,09,28,02,03,11.80
2018,09,28,02,04,11.80
2018,09,28,02,05,11.70
2018,09,28,02,06,11.70
2018,09,28,02,07,11.70
2018,09,28,02,08,11.70
2018,09,28,02,09,11.70
2018,09,28,02,10,11.70
2018,09,28,02,11,11.70
2018,09,28,02,12,11.60
2018,09,28,02,13,11.60
2018,09,28,02,14,11.60
2018,09,28,02,15,11.60
2018,09,28,02,16,11.60
2018,09,28,02,17,11.60
2018,09,28,02,18,11.60
2018,09,28,02,19,11.60
2018,09,28,02,20,11.60
2018,09,28,02,21,11.60
2018,09,28,02,22,11.50
2018,09,28,02,23,11.50
2018,09,28,02,24,11.50
2018,09,28,02,25,11.50
2018,09,28,02,26,11.50
2018,09,28,02,27,11.50
2018,09,28,02,28,11.50
2018,09,28,02,29,11.50
2018,09,28,02,30,11.40
2018,09,28,02,31,11.40
2018,09,28,02,32,11.40
2018,09,28,02,33,11.40
2018,09,28,02,34,11.40
2018,09,28,02,35,11.40
2018,09,28,02,36,11.40
2018,09,28,02,37,11.40
2018,09,28,02,38,11.40
2018,09,28,02,39,11.30
2018,09,28,02,40,11.30
2018,09,28,02,41,11.30
2018,09,28,02,42,11.30
2018,09,28,02,43,11.30
2018,09,28,02,44,11.30
2018,09,28,02,45,11.30
2018,09,28,02,46,11.30
2018,09,28,02,47,11.30
2018,09,28,02,48,11.30
2018,09,28,02,49,11.30
2018,09,28,02,50,11.30
2018,09,28,02,51,11.30
2018,09,28,02,52,11.20
2018,09,28,02,53,11.20
2018,09,28,02,54,11.20
2018,09,28,02,55,11.20
2018,09,28,02,56,11.20
2018,09,28,02,57,11.20
2018,09,28,02,58,11.10
2018,09,28,02,59,11.10
2018,09,28,03,00,11.10
2018,09,28,03,01,11.10
2018,09,28,03,02,11.10
2018,09,28,03,03,11.10
2018,09,28,03,04,11.10
2018,09,28,03,05,11.10
2018,09,28,03,06,11.10
2018,09,28,03,07,11.00
2018,09,28,03,08,11.00
2018,09,28,03,09,11.00
2018,09,28,03,10,11.00
2018,09,28,03,11,11.00
2018,09,28,03,12,11.00
2018,09,28,03,13,10.90
2018,09,28,03,14,10.90
2018,09,28,03,15,10.90
2018,09,28,03,16,10.90
2018,09,28,03,17,10.90
2018,09,28,03,18,10.90
2018,09,28,03,19,10.80
2018,09,28,03,20,10.80
2018,09,28,03,21,10.80
2018,09,28,03,22,10.80
2018,09,28,03,23,10.80
2018,09,28,03,24,10.80
2018,09,28,03,25,10.80
2018,09,28,03,26,10.80
2018,09,28,03,27,10.80
2018,09,28,03,28,10.80
2018,09,28,03,29,10.80
2018,09,28,03,30,10.80
2018,09,28,03,31,10.70
2018,09,28,03,32,10.70
2018,09,28,03,33,10.70
2018,09,28,03,34,10.70
2018,09,28,03,35,10.70
2018,09,28,03,36,10.70
2018,09,28,03,37,10.70
2018,09,28,03,38,10.70
2018,09,28,03,39,10.70
2018,09,28,03,40,10.70
2018,09,28,03,41,10.70
2018,09,28,03,42,10.60
2018,09,28,03,43,10.60
2018,09,28,03,44,10.60
2018,09,28,03,45,10.60
2018,09,28,03,46,10.60
2018,09,28,03,47,10.60
2018,09,28,03,48,10.60
2018,09,28,03,49,10.60
2018,09,28,03,50,10.60
2018,09,28,03,51,10.60
2018,09,28,03,52,10.60
2018,09,28,03,53,10.50
2018,09,28,03,54,10.50
2018,09,28,03,55,10.50
2018,09,28,03,56,10.50
2018,09,28,03,57,10.50
2018,09,28,03,58,10.50
2018,09,28,03,59,10.50
2018,09,28,04,00,10.50
2018,09,28,04,01,10.50
2018,09,28,04,02,10.50
2018,09,28,04,03,10.50
2018,09,28,04,04,10.50
2018,09,28,04,05,10.50
2018,09,28,04,06,10.50
2018,09,28,04,07,10.50
2018,09,28,04,08,10.50
2018,09,28,04,09,10.40
2018,09,28,04,10,10.40
2018,09,28,04,11,10.40
2018,09,28,04,12,10.40
2018,09,28,04,13,10.40
2018,09,28,04,14,10.40
2018,09,28,04,15,10.40
2018,09,28,04,16,10.40
2018,09,28,04,17,10.30
2018,09,28,04,18,10.30
2018,09,28,04,19,10.30
2018,09,28,04,20,10.30
2018,09,28,04,21,10.30
2018,09,28,04,22,10.30
2018,09,28,04,23,10.20
2018,09,28,04,24,10.20
2018,09,28,04,25,10.20
2018,09,28,04,26,10.20
2018,09,28,04,27,10.20
2018,09,28,04,28,10.20
2018,09,28,04,29,10.10
2018,09,28,04,30,10.10
2018,09,28,04,31,10.10
2018,09,28,04,32,10.10
2018,09,28,04,33,10.10
2018,09,28,04,34,10.00
2018,09,28,04,35,10.00
2018,09,28,04,36,10.00
2018,09,28,04,37,10.00
2018,09,28,04,38,10.00
2018,09,28,04,39,9.90
2018,09,28,04,40,9.90
2018,09,28,04,41,9.90
2018,09,28,04,42,9.90
2018,09,28,04,43,9.90
2018,09,28,04,44,9.90
2018,09,28,04,45,9.90
2018,09,28,04,46,9.90
2018,09,28,04,47,9.90
2018,09,28,04,48,9.90
2018,09,28,04,49,9.90
2018,09,28,04,50,9.90
2018,09,28,04,51,9.90
2018,09,28,04,52,9.90
2018,09,28,04,53,9.90
2018,09,28,04,54,9.90
2018,09,28,04,55,9.80
2018,09,28,04,56,9.80
2018,09,28,04,57,9.80
2018,09,28,04,58,9.80
2018,09,28,04,59,9.80
2018,09,28,05,00,9.80
2018,09,28,05,01,9.80
2018,09,28,05,02,9.80
2018,09,28,05,03,9.80
2018,09,28,05,04,9.80
2018,09,28,05,05,9.80
2018,09,28,05,06,9.80
2018,09,28,05,07,9.80
2018,09,28,05,08,9.80
2018,09,28,05,09,9.80
2018,09,28,05,10,9.70
2018,09,28,05,11,9.70
2018,09,28,05,12,9.70
2018,09,28,05,13,9.70
2018,09,28,05,14,9.70
2018,09,28,05,15,9.70
2018,09,28,05,16,9.70
2018,09,28,05,17,9.70
2018,09,28,05,18,9.70
2018,09,28,05,19,9.70
2018,09,28,05,20,9.60
2018,09,28,05,21,9.60
2018,09,28,05,22,9.60
2018,09,28,05,23,9.60
2018,09,28,05,24,9.60
2018,09,28,05,25,9.60
2018,09,28,05,26,9.50
2018,09,28,05,27,9.50
2018,09,28,05,28,9.50
2018,09,28,05,29,9.50
2018,09,28,05,30,9.50
2018,09,28,05,31,9.50
2018,09,28,05,32,9.40
2018,09,28,05,33,9.40
2018,09,28,05,34,9.40
2018,09,28,05,35,9.40
2018,09,28,05,36,9.40
2018,09,28,05,37,9.40
2018,09,28,05,38,9.40
2018,09,28,05,39,9.40
2018,09,28,05,40,9.40
2018,09,28,05,41,9.40
2018,09,28,05,42,9.40
2018,09,28,05,43,9.40
2018,09,28,05,44,9.40
2018,09,28,05,45,9.40
2018,09,28,05,46,9.40
2018,09,28,05,47,9.40
2018,09,28,05,48,9.30
2018,09,28,05,49,9.30
2018,09,28,05,50,9.30
2018,09,28,05,51,9.30
2018,09,28,05,52,9.30
2018,09,28,05,53,9.30
2018,09,28,05,54,9.30
2018,09,28,05,55,9.30
2018,09,28,05,56,9.30
2018,09,28,05,57,9.30
2018,09,28,05,58,9.30
2018,09,28,05,59,9.30
2018,09,28,06,00,9.30
2018,09,28,06,01,9.20
2018,09,28,06,02,9.20
2018,09,28,06,03,9.20
2018,09,28,06,04,9.20
2018,09,28,06,05,9.20
2018,09,28,06,06,9.20
2018,09,28,06,07,9.20
2018,09,28,06,08,9.20
2018,09,28,06,09,9.20
2018,09,28,06,10,9.20
2018,09,28,06,11,9.20
2018,09,28,06,12,9.20
2018,09,28,06,13,9.20
2018,09,28,06,14,9.20
2018,09,28,06,15,9.20
2018,09,28,06,16,9.20
2018,09,28,06,17,9.20
2018,09,28,06,18,9.20
2018,09,28,06,19,9.20
2018,09,28,06,20,9.20
2018,09,28,06,21,9.20
2018,09,28,06,22,9.20
2018,09,28,06,23,9.20
2018,09,28,06,24,9.20
2018,09,28,06,25,9.20
2018,09,28,06,26,9.20
2018,09,28,06,27,9.20
2018,09,28,06,28,9.20
2018,09,28,06,29,9.20
2018,09,28,06,30,9.20
2018,09,28,06,31,9.20
2018,09,28,06,32,9.20
2018,09,28,06,33,9.20
2018,09,28,06,34,9.20
2018,09,28,06,35,9.20
2018,09,28,06,36,9.20
2018,09,28,06,37,9.20
2018,09,28,06,38,9.20
2018,09,28,06,39,9.20
2018,09,28,06,40,9.20
2018,09,28,06,41,9.20
2018,09,28,06,42,9.20
2018,09,28,06,43,9.20
2018,09,28,06,44,9.20
2018,09,28,06,45,9.20
2018,09,28,06,46,9.20
2018,09,28,06,47,9.20
2018,09,28,06,48,9.20
2018,09,28,06,49,9.20
2018,09,28,06,50,9.30
2018,09,28,06,51,9.30
2018,09,28,06,52,9.30
2018,09,28,06,53,9.30
2018,09,28,06,54,9.30
2018,09,28,06,55,9.30
2018,09,28,06,56,9.30
2018,09,28,06,57,9.30
2018,09,28,06,58,9.30
2018,09,28,06,59,9.40
2018,09,28,07,00,9.40
2018,09,28,07,01,9.40
2018,09,28,07,02,9.40
2018,09,28,07,03,9.40
2018,09,28,07,04,9.40
2018,09,28,07,05,9.40
2018,09,28,07,06,9.50
2018,09,28,07,07,9.50
2018,09,28,07,08,9.50
2018,09,28,07,09,9.50
2018,09,28,07,10,9.50
2018,09,28,07,11,9.50
2018,09,28,07,12,9.50
2018,09,28,07,13,9.60
2018,09,28,07,14,9.60
2018,09,28,07,15,9.60
2018,09,28,07,16,9.60
2018,09,28,07,17,9.60
2018,09,28,07,18,9.60
2018,09,28,07,19,9.60
2018,09,28,07,20,9.60
2018,09,28,07,21,9.60
2018,09,28,07,22,9.70
2018,09,28,07,23,9.70
2018,09,28,07,24,9.70
2018,09,28,07,25,9.70
2018,09,28,07,26,9.70
2018,09,28,07,27,9.70
2018,09,28,07,28,9.70
2018,09,28,07,29,9.70
2018,09,28,07,30,9.80
2018,09,28,07,31,9.80
2018,09,28,07,32,9.80
2018,09,28,07,33,9.80
2018,09,28,07,34,9.80
2018,09,28,07,35,9.80
2018,09,28,07,36,9.80
2018,09,28,07,37,9.80
2018,09,28,07,38,9.80
2018,09,28,07,39,9.80
2018,09,28,07,40,9.90
2018,09,28,07,41,9.90
2018,09,28,07,42,9.90
2018,09,28,07,43,9.90
2018,09,28,07,44,9.90
2018,09,28,07,45,9.90
2018,09,28,07,46,10.00
2018,09,28,07,47,10.00
2018,09,28,07,48,10.00
2018,09,28,07,49,10.00
2018,09,28,07,50,10.00
2018,09,28,07,51,10.10
2018,09,28,07,52,10.10
2018,09,28,07,53,10.10
2018,09,28,07,54,10.10
2018,09,28,07,55,10.10
2018,09,28,07,56,10.10
2018,09,28,07,57,10.10
2018,09,28,07,58,10.10
2018,09,28,07,59,10.20
2018,09,28,08,00,10.20
2018,09,28,08,01,10.20
2018,09,28,08,02,10.20
2018,09,28,08,03,10.20
2018,09,28,08,04,10.20
2018,09,28,08,05,10.20
2018,09,28,08,06,10.20
2018,09,28,08,07,10.20
2018,09,28,08,08,10.20
2018,09,28,08,09,10.20
2018,09,28,08,10,10.20
2018,09,28,08,11,10.20
2018,09,28,08,12,10.20
2018,09,28,08,13,10.30
2018,09,28,08,14,10.30
2018,09,28,08,15,10.30
2018,09,28,08,16,10.30
2018,09,28,08,17,10.30
2018,09,28,08,18,10.30
2018,09,28,08,19,10.40
2018,09,28,08,20,10.40
2018,09,28,08,21,10.40
2018,09,28,08,22,10.40
2018,09,28,08,23,10.40
2018,09,28,08,24,10.40
2018,09,28,08,25,10.50
2018,09,28,08,26,10.50
2018,09,28,08,27,10.60
2018,09,28,08,28,10.60
2018,09,28,08,29,10.60
2018,09,28,08,30,10.60
2018,09,28,08,31,10.60
2018,09,28,08,32,10.70
2018,09,28,08,33,10.70
2018,09,28,08,34,10.70
2018,09,28,08,35,10.80
2018,09,28,08,36,10.80
2018,09,28,08,37,10.80
2018,09,28,08,38,10.90
2018,09,28,08,39,10.90
2018,09,28,08,40,11.00
2018,09,28,08,41,11.00
2018,09,28,08,42,11.10
2018,09,28,08,43,11.10
2018,09,28,08,44,11.20
2018,09,28,08,45,11.20
2018,09,28,08,46,11.20
2018,09,28,08,47,11.20
2018,09,28,08,48,11.30
2018,09,28,08,49,11.30
2018,09,28,08,50,11.30
2018,09,28,08,51,11.30
2018,09,28,08,52,11.40
2018,09,28,08,53,11.40
2018,09,28,08,54,11.40
2018,09,28,08,55,11.40
2018,09,28,08,56,11.40
2018,09,28,08,57,11.40
2018,09,28,08,58,11.40
2018,09,28,08,59,11.50
2018,09,28,09,00,11.50
2018,09,28,09,01,11.50
2018,09,28,09,02,11.50
2018,09,28,09,03,11.50
2018,09,28,09,04,11.50
2018,09,28,09,05,11.50
2018,09,28,09,06,11.50
2018,09,28,09,07,11.50
2018,09,28,09,08,11.50
2018,09,28,09,09,11.50
2018,09,28,09,10,11.50
2018,09,28,09,11,11.60
2018,09,28,09,12,11.60
2018,09,28,09,13,11.60
2018,09,28,09,14,11.60
2018,09,28,09,15,11.60
2018,09,28,09,16,11.60
2018,09,28,09,17,11.70
2018,09,28,09,18,11.70
2018,09,28,09,19,11.70
2018,09,28,09,20,11.70
2018,09,28,09,21,11.80
2018,09,28,09,22,11.80
2018,09,28,09,23,11.80
2018,09,28,09,24,11.80
2018,09,28,09,25,11.80
2018,09,28,09,26,11.80
2018,09,28,09,27,11.80
2018,09,28,09,28,11.80
2018,09,28,09,29,11.80
2018,09,28,09,30,11.70
2018,09,28,09,31,11.80
2018,09,28,09,32,11.70
2018,09,28,09,33,11.80
2018,09,28,09,34,11.80
2018,09,28,09,35,11.80
2018,09,28,09,36,11.80
2018,09,28,09,37,11.80
2018,09,28,09,38,11.80
2018,09,28,09,39,11.80
2018,09,28,09,40,11.80
2018,09,28,09,41,11.80
2018,09,28,09,42,11.80
2018,09,28,09,43,11.80
2018,09,28,09,44,11.80
2018,09,28,09,45,11.80
2018,09,28,09,46,11.80
2018,09,28,09,47,11.80
2018,09,28,09,48,11.80
2018,09,28,09,49,11.80
2018,09,28,09,50,11.90
2018,09,28,09,51,11.90
2018,09,28,09,52,11.90
2018,09,28,09,53,11.90
2018,09,28,09,54,12.00
2018,09,28,09,55,12.00
2018,09,28,09,56,12.00
2018,09,28,09,57,12.10
2018,09,28,09,58,12.10
2018,09,28,09,59,12.10
2018,09,28,10,00,12.10
2018,09,28,10,01,12.20
2018,09,28,10,02,12.20
2018,09,28,10,03,12.20
2018,09,28,10,04,12.20
2018,09,28,10,05,12.20
2018,09,28,10,06,12.20
2018,09,28,10,07,12.20
2018,09,28,10,08,12.30
2018,09,28,10,09,12.30
2018,09,28,10,10,12.30
2018,09,28,10,11,12.30
2018,09,28,10,12,12.30
2018,09,28,10,13,12.40
2018,09,28,10,14,12.40
2018,09,28,10,15,12.40
2018,09,28,10,16,12.40
2018,09,28,10,17,12.40
2018,09,28,10,18,12.40
2018,09,28,10,19,12.50
2018,09,28,10,20,12.50
2018,09,28,10,21,12.60
2018,09,28,10,22,12.60
2018,09,28,10,23,12.60
2018,09,28,10,24,12.70
2018,09,28,10,25,12.70
2018,09,28,10,26,12.70
2018,09,28,10,27,12.80
2018,09,28,10,28,12.80
2018,09,28,10,29,12.90
2018,09,28,10,30,12.90
2018,09,28,10,31,13.00
2018,09,28,10,32,13.00
2018,09,28,10,33,13.00
2018,09,28,10,34,13.10
2018,09,28,10,35,13.10
2018,09,28,10,36,13.20
2018,09,28,10,37,13.20
2018,09,28,10,38,13.20
2018,09,28,10,39,13.20
2018,09,28,10,40,13.20
2018,09,28,10,41,13.30
2018,09,28,10,42,13.30
2018,09,28,10,43,13.30
2018,09,28,10,44,13.40
2018,09,28,10,45,13.50
2018,09,28,10,46,13.60
2018,09,28,10,47,13.60
2018,09,28,10,48,13.70
2018,09,28,10,49,13.80
2018,09,28,10,50,13.90
2018,09,28,10,51,13.90
2018,09,28,10,52,14.00
2018,09,28,10,53,14.00
2018,09,28,10,54,14.10
2018,09,28,10,55,14.10
2018,09,28,10,56,14.10
2018,09,28,10,57,14.10
2018,09,28,10,58,14.10
2018,09,28,10,59,14.10
2018,09,28,11,00,14.10
2018,09,28,11,01,14.10
2018,09,28,11,02,14.10
2018,09,28,11,03,14.20
2018,09,28,11,04,14.30
2018,09,28,11,05,14.40
2018,09,28,11,06,14.50
2018,09,28,11,07,14.50
2018,09,28,11,08,14.70
2018,09,28,11,09,14.80
2018,09,28,11,10,14.90
2018,09,28,11,11,15.00
2018,09,28,11,12,15.00
2018,09,28,11,13,15.10
2018,09,28,11,14,15.10
2018,09,28,11,15,15.20
2018,09,28,11,16,15.20
2018,09,28,11,17,15.20
2018,09,28,11,18,15.20
2018,09,28,11,19,15.30
2018,09,28,11,20,15.30
2018,09,28,11,21,15.40
2018,09,28,11,22,15.50
2018,09,28,11,23,15.50
2018,09,28,11,24,15.60
2018,09,28,11,25,15.60
2018,09,28,11,26,15.60
2018,09,28,11,27,15.70
2018,09,28,11,28,15.70
2018,09,28,11,29,15.80
2018,09,28,11,30,15.90
2018,09,28,11,31,15.90
2018,09,28,11,32,16.00
2018,09,28,11,33,16.00
2018,09,28,11,34,16.10
2018,09,28,11,35,16.10
2018,09,28,11,36,16.20
2018,09,28,11,37,16.20
2018,09,28,11,38,16.30
2018,09,28,11,39,16.40
2018,09,28,11,40,16.40
2018,09,28,11,41,16.50
2018,09,28,11,42,16.60
2018,09,28,11,43,16.70
2018,09,28,11,44,16.80
2018,09,28,11,45,16.80
2018,09,28,11,46,16.90
2018,09,28,11,47,17.10
2018,09,28,11,48,17.20
2018,09,28,11,49,17.30
2018,09,28,11,50,17.40
2018,09,28,11,51,17.50
2018,09,28,11,52,17.60
2018,09,28,11,53,17.60
2018,09,28,11,54,17.70
2018,09,28,11,55,17.80
2018,09,28,11,56,17.80
2018,09,28,11,57,17.80
2018,09,28,11,58,17.80
2018,09,28,11,59,17.80
2018,09,28,12,00,17.80
2018,09,28,12,01,17.80
2018,09,28,12,02,17.80
2018,09,28,12,03,17.90
2018,09,28,12,04,17.90
2018,09,28,12,05,17.90
2018,09,28,12,06,17.90
2018,09,28,12,07,17.90
2018,09,28,12,08,18.00
2018,09,28,12,09,18.10
2018,09,28,12,10,18.10
2018,09,28,12,11,18.10
2018,09,28,12,12,18.10
2018,09,28,12,13,18.20
2018,09,28,12,14,18.20
2018,09,28,12,15,18.30
2018,09,28,12,16,18.40
2018,09,28,12,17,18.40
2018,09,28,12,18,18.60
2018,09,28,12,19,18.60
2018,09,28,12,20,18.70
2018,09,28,12,21,18.70
2018,09,28,12,22,18.70
2018,09,28,12,23,18.70
2018,09,28,12,24,18.80
2018,09,28,12,25,18.80
2018,09,28,12,26,18.80
2018,09,28,12,27,18.80
2018,09,28,12,28,18.90
2018,09,28,12,29,19.00
2018,09,28,12,30,19.10
2018,09,28,12,31,19.10
2018,09,28,12,32,19.10
2018,09,28,12,33,19.20
2018,09,28,12,34,19.20
2018,09,28,12,35,19.20
2018,09,28,12,36,19.30
2018,09,28,12,37,19.30
2018,09,28,12,38,19.30
2018,09,28,12,39,19.30
2018,09,28,12,40,19.30
2018,09,28,12,41,19.30
2018,09,28,12,42,19.30
2018,09,28,12,43,19.30
2018,09,28,12,44,19.30
2018,09,28,12,45,19.30
2018,09,28,12,46,19.30
2018,09,28,12,47,19.40
2018,09,28,12,48,19.40
2018,09,28,12,49,19.40
2018,09,28,12,50,19.40
2018,09,28,12,51,19.50
2018,09,28,12,52,19.50
2018,09,28,12,53,19.60
2018,09,28,12,54,19.70
2018,09,28,12,55,19.80
2018,09,28,12,56,19.90
2018,09,28,12,57,20.00
2018,09,28,12,58,20.00
2018,09,28,12,59,20.10
2018,09,28,13,00,20.10
2018,09,28,13,01,20.20
2018,09,28,13,02,20.30
2018,09,28,13,03,20.30
2018,09,28,13,04,20.40
2018,09,28,13,05,20.50
2018,09,28,13,06,20.60
2018,09,28,13,07,20.70
2018,09,28,13,08,20.80
2018,09,28,13,09,20.80
2018,09,28,13,10,20.80
2018,09,28,13,11,20.90
2018,09,28,13,12,20.90
2018,09,28,13,13,20.90
2018,09,28,13,14,20.90
2018,09,28,13,15,20.90
2018,09,28,13,16,21.00
2018,09,28,13,17,21.10
2018,09,28,13,18,21.10
2018,09,28,13,19,21.10
2018,09,28,13,20,21.10
2018,09,28,13,21,21.20
2018,09,28,13,22,21.20
2018,09,28,13,23,21.30
2018,09,28,13,24,21.40
2018,09,28,13,25,21.50
2018,09,28,13,26,21.60
2018,09,28,13,27,21.60
2018,09,28,13,28,21.70
2018,09,28,13,29,21.80
2018,09,28,13,30,21.90
2018,09,28,13,31,21.90
2018,09,28,13,32,22.00
2018,09,28,13,33,22.00
2018,09,28,13,34,22.10
2018,09,28,13,35,22.20
2018,09,28,13,36,22.10
2018,09,28,13,37,22.10
2018,09,28,13,38,22.00
2018,09,28,13,39,22.00
2018,09,28,13,40,22.00
2018,09,28,13,41,22.00
2018,09,28,13,42,22.00
2018,09,28,13,43,22.10
2018,09,28,13,44,22.20
2018,09,28,13,45,22.30
2018,09,28,13,46,22.40
2018,09,28,13,47,22.50
2018,09,28,13,48,22.50
2018,09,28,13,49,22.60
2018,09,28,13,50,22.50
2018,09,28,13,51,22.50
2018,09,28,13,52,22.40
2018,09,28,13,53,22.40
2018,09,28,13,54,22.30
2018,09,28,13,55,22.30
2018,09,28,13,56,22.30
2018,09,28,13,57,22.30
2018,09,28,13,58,22.40
2018,09,28,13,59,22.40
2018,09,28,14,00,22.50
2018,09,28,14,01,22.50
2018,09,28,14,02,22.60
2018,09,28,14,03,22.60
2018,09,28,14,04,22.70
2018,09,28,14,05,22.80
2018,09,28,14,06,23.00
2018,09,28,14,07,23.10
2018,09,28,14,08,23.20
2018,09,28,14,09,23.30
2018,09,28,14,10,23.30
2018,09,28,14,11,23.30
2018,09,28,14,12,23.30
2018,09,28,14,13,23.30
2018,09,28,14,14,23.20
2018,09,28,14,15,23.20
2018,09,28,14,16,23.20
2018,09,28,14,17,23.20
2018,09,28,14,18,23.20
2018,09,28,14,19,23.20
2018,09,28,14,20,23.20
2018,09,28,14,21,23.20
2018,09,28,14,22,23.20
2018,09,28,14,23,23.20
2018,09,28,14,24,23.30
2018,09,28,14,25,23.40
2018,09,28,14,26,23.50
2018,09,28,14,27,23.60
2018,09,28,14,28,23.70
2018,09,28,14,29,23.80
2018,09,28,14,30,23.80
2018,09,28,14,31,23.90
2018,09,28,14,32,23.90
2018,09,28,14,33,24.00
2018,09,28,14,34,24.10
2018,09,28,14,35,24.20
2018,09,28,14,36,24.20
2018,09,28,14,37,24.20
2018,09,28,14,38,24.20
2018,09,28,14,39,24.20
2018,09,28,14,40,24.20
2018,09,28,14,41,24.30
2018,09,28,14,42,24.40
2018,09,28,14,43,24.50
2018,09,28,14,44,24.60
2018,09,28,14,45,24.60
2018,09,28,14,46,24.70
2018,09,28,14,47,24.70
2018,09,28,14,48,24.70
2018,09,28,14,49,24.70
2018,09,28,14,50,24.70
2018,09,28,14,51,24.70
2018,09,28,14,52,24.60
2018,09,28,14,53,24.60
2018,09,28,14,54,24.60
2018,09,28,14,55,24.60
2018,09,28,14,56,24.60
2018,09,28,14,57,24.60
2018,09,28,14,58,24.60
2018,09,28,14,59,24.60
2018,09,28,15,00,24.60
2018,09,28,15,01,24.60
2018,09,28,15,02,24.50
2018,09,28,15,03,24.50
2018,09,28,15,04,24.40
2018,09,28,15,05,24.30
2018,09,28,15,06,24.30
2018,09,28,15,07,24.30
2018,09,28,15,08,24.30
2018,09,28,15,09,24.40
2018,09,28,15,10,24.50
2018,09,28,15,11,24.60
2018,09,28,15,12,24.70
2018,09,28,15,13,24.80
2018,09,28,15,14,24.80
2018,09,28,15,15,25.00
2018,09,28,15,16,25.10
2018,09,28,15,17,25.20
2018,09,28,15,18,25.40
2018,09,28,15,19,25.40
2018,09,28,15,20,25.50
2018,09,28,15,21,25.50
2018,09,28,15,22,25.60
2018,09,28,15,23,25.60
2018,09,28,15,24,25.60
2018,09,28,15,25,25.60
2018,09,28,15,26,25.60
2018,09,28,15,27,25.60
2018,09,28,15,28,25.60
2018,09,28,15,29,25.50
2018,09,28,15,30,25.40
2018,09,28,15,31,25.30
2018,09,28,15,32,25.30
2018,09,28,15,33,25.20
2018,09,28,15,34,25.20
2018,09,28,15,35,25.10
2018,09,28,15,36,25.10
2018,09,28,15,37,25.10
2018,09,28,15,38,25.10
2018,09,28,15,39,25.10
2018,09,28,15,40,25.10
2018,09,28,15,41,25.20
2018,09,28,15,42,25.30
2018,09,28,15,43,25.30
2018,09,28,15,44,25.40
2018,09,28,15,45,25.40
2018,09,28,15,46,25.50
2018,09,28,15,47,25.50
2018,09,28,15,48,25.50
2018,09,28,15,49,25.50
2018,09,28,15,50,25.50
2018,09,28,15,51,25.50
2018,09,28,15,52,25.60
2018,09,28,15,53,25.60
2018,09,28,15,54,25.60
2018,09,28,15,55,25.70
2018,09,28,15,56,25.70
2018,09,28,15,57,25.70
2018,09,28,15,58,25.70
2018,09,28,15,59,25.60
2018,09,28,16,00,25.60
2018,09,28,16,01,25.60
2018,09,28,16,02,25.50
2018,09,28,16,03,25.50
2018,09,28,16,04,25.50
2018,09,28,16,05,25.50
2018,09,28,16,06,25.50
2018,09,28,16,07,25.40
2018,09,28,16,08,25.40
2018,09,28,16,09,25.40
2018,09,28,16,10,25.30
2018,09,28,16,11,25.30
2018,09,28,16,12,25.30
2018,09,28,16,13,25.20
2018,09,28,16,14,25.20
2018,09,28,16,15,25.20
2018,09,28,16,16,25.20
2018,09,28,16,17,25.20
2018,09,28,16,18,25.20
2018,09,28,16,19,25.30
2018,09,28,16,20,25.30
2018,09,28,16,21,25.40
2018,09,28,16,22,25.50
2018,09,28,16,23,25.50
2018,09,28,16,24,25.60
2018,09,28,16,25,25.60
2018,09,28,16,26,25.60
2018,09,28,16,27,25.60
2018,09,28,16,28,25.70
2018,09,28,16,29,25.70
2018,09,28,16,30,25.80
2018,09,28,16,31,25.90
2018,09,28,16,32,25.90
2018,09,28,16,33,26.00
2018,09,28,16,34,26.00
2018,09,28,16,35,26.00
2018,09,28,16,36,26.00
2018,09,28,16,37,26.00
2018,09,28,16,38,26.00
2018,09,28,16,39,26.10
2018,09,28,16,40,26.10
2018,09,28,16,41,26.00
2018,09,28,16,42,26.00
2018,09,28,16,43,26.00
2018,09,28,16,44,25.90
2018,09,28,16,45,25.90
2018,09,28,16,46,25.80
2018,09,28,16,47,25.70
2018,09,28,16,48,25.60
2018,09,28,16,49,25.50
2018,09,28,16,50,25.40
2018,09,28,16,51,25.40
2018,09,28,16,52,25.40
2018,09,28,16,53,25.50
2018,09,28,16,54,25.50
2018,09,28,16,55,25.50
2018,09,28,16,56,25.60
2018,09,28,16,57,25.60
2018,09,28,16,58,25.70
2018,09,28,16,59,25.80
2018,09,28,17,00,25.80
2018,09,28,17,01,25.70
2018,09,28,17,02,25.70
2018,09,28,17,03,25.70
2018,09,28,17,04,25.60
2018,09,28,17,05,25.60
2018,09,28,17,06,25.60
2018,09,28,17,07,25.50
2018,09,28,17,08,25.30
2018,09,28,17,09,25.10
2018,09,28,17,10,24.90
2018,09,28,17,11,24.70
2018,09,28,17,12,24.60
2018,09,28,17,13,24.50
2018,09,28,17,14,24.40
2018,09,28,17,15,24.30
2018,09,28,17,16,24.20
2018,09,28,17,17,24.10
2018,09,28,17,18,24.00
2018,09,28,17,19,23.90
2018,09,28,17,20,23.80
2018,09,28,17,21,23.60
2018,09,28,17,22,23.50
2018,09,28,17,23,23.40
2018,09,28,17,24,23.30
2018,09,28,17,25,23.20
2018,09,28,17,26,23.20
2018,09,28,17,27,23.20